STARLINK-1201, 45182

Orbit data source: Space-Track

STARLINK-1201, 45182 is a payload satellite owned by SpaceX/Seattle (US) in LEO that was launched on Mon, 17 Feb 2020 UTC via an FALCON 9 launch vehicle from the Air Force Eastern Test Range (AFETR). Payloads include a variety of satellites, spacecraft, and rockets equipped with specific instruments for various scientific and technological missions. These include communications satellites like Starlink; space stations such as the ISS; scientific satellites like the Hubble; Earth observation satellites from companies like Planet Labs, Umbra, and HawkEye 360; GPS; miniature CubeSats for education and research; and military/defense satellites.

Loading next visibility...
STARLINK-1201 details
Identifier
45182, 2020-012E
Orbit
LEO
Last TLE update9 hours ago
Origin
Flag of USSpaceX/Seattle (US)
ManufacturerSpaceX/Seattle
MissionOperational Commercial Communications
Bus & MotorSTARLINK, Unknown motor
Mass260 kg wet, ~248 kg dry
Launch date (UTC)
2020-02-17 (5 years ago)
Launch vehicle
FALCON 9
Launch site
Air Force Eastern Test Range (AFETR)
Object type
Payload
Rocket body
Debris
Shape & HBRBox + 1 Pan, 8.86 m
Radar Cross Section13.562 m², Large (>1 m²)

Expand to show TLE details & history

TLE from 9 hours ago
0 STARLINK-1201
1 45182U 20012E   24361.26984441 -.00000632  00000-0 -23541-4 0  9991
2 45182  53.0540 194.7596 0001461  91.2066 268.9091 15.06399042268398
Epoch: 2024-12-26T06:28Z
Definitive object data (Epoch: 2024-12-26T06:28:34.557Z)
Latitude0.00005°
Longitude2.364°
Altitude548.113 km
Speed7.589 km/s
True Right ascension12h 59m 02s
True Declination0° 00' 00"
Sunlit
Object was in daylight at TLE epoch
Visualization TLE readout
Latitude-33.70482°
Longitude-29.31595°
Altitude558.536 km
Speed7.582 km/s
Apparent Right ascension07h 31m 42s
Apparent Declination-53° 47' 58"
Sunlit
Object is in daylight
Visualization observer readout
Local Sidereal Time15:12:15
Azimuth229.421° WSW
Elevation-45.254°
Doppler factor1
Orbital elements
Apogee altitude548.497 km
Perigee altitude546.473 km
Semi-major axis6,925.622 km
Eccentricity0.0001461
Inclination53.054°
RAAN194.7596°
Arg. of periapsis91.2066°
True anomaly268.89236°
Mean anomaly268.9091°
Eccentric anomaly268.90073°
Mean motion3.76578 °/min
BSTAR-0.000023541
Orbital period95.6 mins
Loading maneuver chart data...

STARLINK-1201 Visibility forecast

Observer location: undefined°, undefined

Span
Click to sort rows by Start time (UTC) header in descending order
Start Az.
Max El. time (UTC)
Max El. Az.
Max El.
End time (UTC)
End Az.
7 mins2024-12-26 16:13:11.568Z237.465° WSW2024-12-26 16:16:11.568Z293.868° NW43.503°2024-12-26 16:20:11.568Z46.824° ENE
4 mins2024-12-26 17:55:11.568Z316.283° NNW2024-12-26 17:56:11.568Z334.943° NNW18.048°2024-12-26 17:59:11.568Z24.773° NE
5 mins2024-12-26 21:16:11.568Z346.281° N2024-12-26 21:18:11.568Z26.905° NE21.514°2024-12-26 21:21:11.568Z76.387° E
6 mins2024-12-26 22:55:11.568Z304.666° NW2024-12-26 22:58:11.568Z184.17° SSW43.413°2024-12-26 23:01:11.568Z138.306° SSE
4 mins2024-12-27 14:29:11.568Z160.257° S2024-12-27 14:31:11.568Z121.772° SE19.162°2024-12-27 14:33:11.568Z87.73° E
|